TimePDT,TemperatureF,Dew PointF,Humidity,Sea Level PressureIn,VisibilityMPH,Wind Direction,Wind SpeedMPH,Gust SpeedMPH,PrecipitationIn,Events,Conditions,WindDirDegrees,DateUTC
12:53 AM,48.0,44.1,86,29.41,8.0,South,19.6,28.8,0.03,Rain,Light Rain,170,2013-09-30 07:53:00
1:53 AM,48.9,46.0,90,29.44,4.0,South,20.7,26.5,0.06,Rain,Light Rain,190,2013-09-30 08:53:00
2:53 AM,50.0,46.0,86,29.44,10.0,SW,21.9,31.1,0.01,,Mostly Cloudy,230,2013-09-30 09:53:00
3:53 AM,48.0,42.1,80,29.52,10.0,SW,18.4,-,N/A,,Scattered Clouds,220,2013-09-30 10:53:00
4:53 AM,46.0,41.0,83,29.57,10.0,SSW,15.0,-,N/A,,Scattered Clouds,210,2013-09-30 11:53:00
5:53 AM,43.0,36.0,76,29.59,10.0,SSW,19.6,27.6,N/A,,Scattered Clouds,210,2013-09-30 12:53:00
6:53 AM,43.0,37.0,80,29.60,10.0,SSW,26.5,34.5,N/A,,Scattered Clouds,210,2013-09-30 13:53:00
7:53 AM,45.0,37.0,74,29.63,10.0,SSW,19.6,32.2,N/A,,Mostly Cloudy,210,2013-09-30 14:53:00
8:53 AM,46.9,37.0,68,29.65,10.0,SW,26.5,42.6,N/A,,Mostly Cloudy,220,2013-09-30 15:53:00
9:53 AM,48.0,37.0,66,29.68,10.0,SSW,28.8,39.1,N/A,,Mostly Cloudy,210,2013-09-30 16:53:00
10:53 AM,50.0,37.0,61,29.69,10.0,SW,31.1,46.0,N/A,,Mostly Cloudy,220,2013-09-30 17:53:00
11:53 AM,53.1,37.9,57,29.69,10.0,SW,36.8,43.7,N/A,,Mostly Cloudy,220,2013-09-30 18:53:00
12:53 PM,53.1,37.0,55,29.72,10.0,SW,29.9,43.7,N/A,,Mostly Cloudy,220,2013-09-30 19:53:00
1:53 PM,55.0,37.9,53,29.73,10.0,SW,34.5,47.2,N/A,,Mostly Cloudy,220,2013-09-30 20:53:00
2:53 PM,57.0,37.9,49,29.74,10.0,SW,32.2,46.0,N/A,,Mostly Cloudy,220,2013-09-30 21:53:00
3:53 PM,55.0,37.9,53,29.79,10.0,SW,26.5,35.7,N/A,,Overcast,220,2013-09-30 22:53:00
4:53 PM,54.0,39.0,57,29.81,10.0,SW,23.0,32.2,N/A,,Mostly Cloudy,220,2013-09-30 23:53:00
5:53 PM,53.1,39.0,59,29.83,10.0,SW,16.1,24.2,N/A,,Mostly Cloudy,220,2013-10-01 00:53:00
6:53 PM,52.0,37.9,59,29.84,10.0,SW,17.3,27.6,N/A,,Mostly Cloudy,220,2013-10-01 01:53:00
7:53 PM,51.1,37.9,61,29.86,10.0,SSW,18.4,28.8,N/A,,Mostly Cloudy,210,2013-10-01 02:53:00
8:53 PM,50.0,37.0,61,29.87,10.0,SSW,16.1,-,N/A,,Mostly Cloudy,210,2013-10-01 03:53:00
9:53 PM,48.9,37.9,66,29.88,10.0,SSW,13.8,-,N/A,,Overcast,210,2013-10-01 04:53:00
10:53 PM,46.9,37.0,68,29.89,10.0,SSW,16.1,-,N/A,,Scattered Clouds,210,2013-10-01 05:53:00
11:53 PM,45.0,37.0,74,29.90,10.0,SW,15.0,26.5,N/A,,Scattered Clouds,220,2013-10-01 06:53:00